This is the latest recevied weather packets stored in our database for station/object KC8SWY-15. If no packets are shown the sender has not sent any weather packets the latest 10 day(s).
| Time | Temp. | Humidity | Pressure | Rain* | Wind** | Luminosity | Snow |
|---|---|---|---|---|---|---|---|
| 1788113938 | 25.56° C | 70% | 1014.8 hPa | 0 mm | - | - | - |
| 1788113750 | 25.56° C | 70% | 1014.8 hPa | 0 mm | - | - | - |
| 1788113450 | 25.56° C | 71% | 1014.8 hPa | 0 mm | - | - | - |
| 1788113150 | 25.56° C | 76% | 1014.8 hPa | 0 mm | - | - | - |
| 1788112937 | 25° C | 76% | 1014.8 hPa | 0 mm | - | - | - |
| 1788112850 | 25° C | 76% | 1014.8 hPa | 0 mm | - | - | - |
| 1788112550 | 25° C | 77% | 1014.7 hPa | 0 mm | - | - | - |
| 1788112250 | 24.44° C | 79% | 1014.8 hPa | 0 mm | - | - | - |
| 1788112126 | 23.89° C | 81% | 1015.1 hPa | 0 mm | - | - | - |
| 1788111950 | 23.89° C | 81% | 1015.1 hPa | 0 mm | - | - | - |
| 1788111650 | 23.89° C | 79% | 1015.1 hPa | 0 mm | - | - | - |
| 1788111350 | 23.89° C | 79% | 1015.2 hPa | 0 mm | - | - | - |
| 1788111103 | 23.89° C | 82% | 1015.2 hPa | 0 mm | - | - | - |
| 1788111050 | 23.89° C | 82% | 1015.2 hPa | 0 mm | - | - | - |
| 1788110750 | 23.33° C | 82% | 1015.2 hPa | 0 mm | - | - | - |
| 1788110450 | 23.33° C | 83% | 1015.2 hPa | 0 mm | - | - | - |
| 1788110150 | 22.78° C | 84% | 1015.3 hPa | 0 mm | - | - | - |
| 1788109850 | 22.78° C | 86% | 1015.3 hPa | 0 mm | - | - | - |
| 1788109550 | 22.22° C | 87% | 1015.3 hPa | 0 mm | - | - | - |
| 1788109319 | 21.67° C | 89% | 1015.4 hPa | 0 mm | - | - | - |
| 1788109250 | 21.67° C | 89% | 1015.4 hPa | 0 mm | - | - | - |
| 1788108950 | 21.67° C | 89% | 1015.6 hPa | 0 mm | - | - | - |
| 1788108650 | 21.11° C | 91% | 1015.8 hPa | 0 mm | - | - | - |
| 1788108350 | 21.11° C | 91% | 1015.8 hPa | 0 mm | - | - | - |
| 1788108050 | 20.56° C | 91% | 1016 hPa | 0.76 mm | - | - | - |
* Rain latest hour (hover to see other rain measurements)
** Current wind speed in m/s (hover to see current wind gust speed)